Year,Month,Day,Hour,Minute,Value (Times are PST for temperature in C)
2008,03,23,00,00,9.20
2008,03,23,00,01,9.20
2008,03,23,00,02,9.20
2008,03,23,00,03,9.20
2008,03,23,00,04,9.20
2008,03,23,00,05,9.20
2008,03,23,00,06,9.20
2008,03,23,00,07,9.20
2008,03,23,00,08,9.20
2008,03,23,00,09,9.30
2008,03,23,00,10,9.30
2008,03,23,00,11,9.30
2008,03,23,00,12,9.30
2008,03,23,00,13,9.30
2008,03,23,00,14,9.30
2008,03,23,00,15,9.30
2008,03,23,00,16,9.30
2008,03,23,00,17,9.30
2008,03,23,00,18,9.30
2008,03,23,00,19,9.30
2008,03,23,00,20,9.30
2008,03,23,00,21,9.30
2008,03,23,00,22,9.30
2008,03,23,00,23,9.30
2008,03,23,00,24,9.30
2008,03,23,00,25,9.30
2008,03,23,00,26,9.20
2008,03,23,00,27,9.20
2008,03,23,00,28,9.20
2008,03,23,00,29,9.20
2008,03,23,00,30,9.20
2008,03,23,00,31,9.20
2008,03,23,00,32,9.20
2008,03,23,00,33,9.20
2008,03,23,00,34,9.20
2008,03,23,00,35,9.20
2008,03,23,00,36,9.20
2008,03,23,00,37,9.20
2008,03,23,00,38,9.20
2008,03,23,00,39,9.20
2008,03,23,00,40,9.20
2008,03,23,00,41,9.20
2008,03,23,00,42,9.20
2008,03,23,00,43,9.20
2008,03,23,00,44,9.10
2008,03,23,00,45,9.20
2008,03,23,00,46,9.20
2008,03,23,00,47,9.20
2008,03,23,00,48,9.20
2008,03,23,00,49,9.20
2008,03,23,00,50,9.20
2008,03,23,00,51,9.20
2008,03,23,00,52,9.20
2008,03,23,00,53,9.20
2008,03,23,00,54,9.20
2008,03,23,00,55,9.10
2008,03,23,00,56,9.00
2008,03,23,00,57,9.00
2008,03,23,00,58,8.90
2008,03,23,00,59,8.90
2008,03,23,01,00,8.80
2008,03,23,01,01,8.80
2008,03,23,01,02,8.80
2008,03,23,01,03,8.70
2008,03,23,01,04,8.70
2008,03,23,01,05,8.70
2008,03,23,01,06,8.60
2008,03,23,01,07,8.60
2008,03,23,01,08,8.50
2008,03,23,01,09,8.50
2008,03,23,01,10,8.50
2008,03,23,01,11,8.50
2008,03,23,01,12,8.50
2008,03,23,01,13,8.50
2008,03,23,01,14,8.50
2008,03,23,01,15,8.50
2008,03,23,01,16,8.50
2008,03,23,01,17,8.50
2008,03,23,01,18,8.50
2008,03,23,01,19,8.50
2008,03,23,01,20,8.50
2008,03,23,01,21,8.60
2008,03,23,01,22,8.60
2008,03,23,01,23,8.60
2008,03,23,01,24,8.60
2008,03,23,01,25,8.60
2008,03,23,01,26,8.60
2008,03,23,01,27,8.60
2008,03,23,01,28,8.50
2008,03,23,01,29,8.50
2008,03,23,01,30,8.40
2008,03,23,01,31,8.40
2008,03,23,01,32,8.30
2008,03,23,01,33,8.30
2008,03,23,01,34,8.30
2008,03,23,01,35,8.20
2008,03,23,01,36,8.20
2008,03,23,01,37,8.20
2008,03,23,01,38,8.10
2008,03,23,01,39,8.00
2008,03,23,01,40,7.90
2008,03,23,01,41,7.90
2008,03,23,01,42,7.80
2008,03,23,01,43,7.80
2008,03,23,01,44,7.80
2008,03,23,01,45,7.80
2008,03,23,01,46,7.80
2008,03,23,01,47,7.70
2008,03,23,01,48,7.70
2008,03,23,01,49,7.70
2008,03,23,01,50,7.70
2008,03,23,01,51,7.70
2008,03,23,01,52,7.70
2008,03,23,01,53,7.60
2008,03,23,01,54,7.60
2008,03,23,01,55,7.60
2008,03,23,01,56,7.60
2008,03,23,01,57,7.60
2008,03,23,01,58,7.60
2008,03,23,01,59,7.60
2008,03,23,02,00,7.70
2008,03,23,02,01,7.70
2008,03,23,02,02,7.70
2008,03,23,02,03,7.70
2008,03,23,02,04,7.70
2008,03,23,02,05,7.80
2008,03,23,02,06,7.80
2008,03,23,02,07,7.80
2008,03,23,02,08,7.80
2008,03,23,02,09,7.80
2008,03,23,02,10,7.80
2008,03,23,02,11,7.80
2008,03,23,02,12,7.80
2008,03,23,02,13,7.80
2008,03,23,02,14,7.80
2008,03,23,02,15,7.80
2008,03,23,02,16,7.80
2008,03,23,02,17,7.80
2008,03,23,02,18,7.80
2008,03,23,02,19,7.80
2008,03,23,02,20,7.80
2008,03,23,02,21,7.80
2008,03,23,02,22,7.90
2008,03,23,02,23,7.90
2008,03,23,02,24,7.90
2008,03,23,02,25,8.00
2008,03,23,02,26,8.00
2008,03,23,02,27,8.00
2008,03,23,02,28,8.00
2008,03,23,02,29,8.10
2008,03,23,02,30,8.10
2008,03,23,02,31,8.10
2008,03,23,02,32,8.10
2008,03,23,02,33,8.10
2008,03,23,02,34,8.10
2008,03,23,02,35,8.10
2008,03,23,02,36,8.10
2008,03,23,02,37,8.10
2008,03,23,02,38,8.10
2008,03,23,02,39,8.00
2008,03,23,02,40,8.00
2008,03,23,02,41,8.00
2008,03,23,02,42,7.90
2008,03,23,02,43,7.90
2008,03,23,02,44,7.90
2008,03,23,02,45,7.90
2008,03,23,02,46,7.80
2008,03,23,02,47,7.80
2008,03,23,02,48,7.80
2008,03,23,02,49,7.80
2008,03,23,02,50,7.80
2008,03,23,02,51,7.80
2008,03,23,02,52,7.80
2008,03,23,02,53,7.80
2008,03,23,02,54,7.80
2008,03,23,02,55,7.80
2008,03,23,02,56,7.80
2008,03,23,02,57,7.80
2008,03,23,02,58,7.80
2008,03,23,02,59,7.80
2008,03,23,03,00,7.80
2008,03,23,03,01,7.80
2008,03,23,03,02,7.80
2008,03,23,03,03,7.80
2008,03,23,03,04,7.80
2008,03,23,03,05,7.80
2008,03,23,03,06,7.80
2008,03,23,03,07,7.80
2008,03,23,03,08,7.80
2008,03,23,03,09,7.80
2008,03,23,03,10,7.80
2008,03,23,03,11,7.80
2008,03,23,03,12,7.80
2008,03,23,03,13,7.80
2008,03,23,03,14,7.80
2008,03,23,03,15,7.80
2008,03,23,03,16,7.80
2008,03,23,03,17,7.80
2008,03,23,03,18,7.80
2008,03,23,03,19,7.80
2008,03,23,03,20,7.80
2008,03,23,03,21,7.80
2008,03,23,03,22,7.80
2008,03,23,03,23,7.80
2008,03,23,03,24,7.80
2008,03,23,03,25,7.80
2008,03,23,03,26,7.80
2008,03,23,03,27,7.80
2008,03,23,03,28,7.80
2008,03,23,03,29,7.80
2008,03,23,03,30,7.80
2008,03,23,03,31,7.80
2008,03,23,03,32,7.80
2008,03,23,03,33,7.80
2008,03,23,03,34,7.80
2008,03,23,03,35,7.80
2008,03,23,03,36,7.80
2008,03,23,03,37,7.80
2008,03,23,03,38,7.80
2008,03,23,03,39,7.80
2008,03,23,03,40,7.80
2008,03,23,03,41,7.80
2008,03,23,03,42,7.80
2008,03,23,03,43,7.80
2008,03,23,03,44,7.80
2008,03,23,03,45,7.90
2008,03,23,03,46,7.90
2008,03,23,03,47,7.90
2008,03,23,03,48,7.90
2008,03,23,03,49,7.90
2008,03,23,03,50,7.90
2008,03,23,03,51,7.90
2008,03,23,03,52,7.90
2008,03,23,03,53,7.90
2008,03,23,03,54,7.90
2008,03,23,03,55,7.90
2008,03,23,03,56,7.90
2008,03,23,03,57,7.90
2008,03,23,03,58,7.90
2008,03,23,03,59,7.90
2008,03,23,04,00,7.90
2008,03,23,04,01,7.90
2008,03,23,04,02,7.90
2008,03,23,04,03,7.90
2008,03,23,04,04,7.90
2008,03,23,04,05,8.00
2008,03,23,04,06,8.00
2008,03,23,04,07,8.00
2008,03,23,04,08,8.00
2008,03,23,04,09,8.00
2008,03,23,04,10,8.00
2008,03,23,04,11,8.00
2008,03,23,04,12,8.00
2008,03,23,04,13,8.00
2008,03,23,04,14,8.00
2008,03,23,04,15,8.00
2008,03,23,04,16,8.00
2008,03,23,04,17,7.90
2008,03,23,04,18,7.90
2008,03,23,04,19,7.90
2008,03,23,04,20,7.90
2008,03,23,04,21,7.80
2008,03,23,04,22,7.80
2008,03,23,04,23,7.80
2008,03,23,04,24,7.80
2008,03,23,04,25,7.80
2008,03,23,04,26,7.80
2008,03,23,04,27,7.80
2008,03,23,04,28,7.80
2008,03,23,04,29,7.80
2008,03,23,04,30,7.80
2008,03,23,04,31,7.80
2008,03,23,04,32,7.80
2008,03,23,04,33,7.80
2008,03,23,04,34,7.80
2008,03,23,04,35,7.80
2008,03,23,04,36,7.80
2008,03,23,04,37,7.70
2008,03,23,04,38,7.70
2008,03,23,04,39,7.70
2008,03,23,04,40,7.60
2008,03,23,04,41,7.60
2008,03,23,04,42,7.60
2008,03,23,04,43,7.60
2008,03,23,04,44,7.60
2008,03,23,04,45,7.50
2008,03,23,04,46,7.50
2008,03,23,04,47,7.50
2008,03,23,04,48,7.50
2008,03,23,04,49,7.40
2008,03,23,04,50,7.40
2008,03,23,04,51,7.40
2008,03,23,04,52,7.30
2008,03,23,04,53,7.30
2008,03,23,04,54,7.30
2008,03,23,04,55,7.30
2008,03,23,04,56,7.30
2008,03,23,04,57,7.30
2008,03,23,04,58,7.30
2008,03,23,04,59,7.30
2008,03,23,05,00,7.30
2008,03,23,05,01,7.30
2008,03,23,05,02,7.30
2008,03,23,05,03,7.30
2008,03,23,05,04,7.30
2008,03,23,05,05,7.30
2008,03,23,05,06,7.30
2008,03,23,05,07,7.30
2008,03,23,05,08,7.20
2008,03,23,05,09,7.20
2008,03,23,05,10,7.20
2008,03,23,05,11,7.20
2008,03,23,05,12,7.20
2008,03,23,05,13,7.20
2008,03,23,05,14,7.10
2008,03,23,05,15,7.10
2008,03,23,05,16,7.10
2008,03,23,05,17,7.00
2008,03,23,05,18,7.00
2008,03,23,05,19,7.00
2008,03,23,05,20,7.00
2008,03,23,05,21,6.90
2008,03,23,05,22,6.90
2008,03,23,05,23,6.80
2008,03,23,05,24,6.80
2008,03,23,05,25,6.80
2008,03,23,05,26,6.80
2008,03,23,05,27,6.80
2008,03,23,05,28,6.80
2008,03,23,05,29,6.80
2008,03,23,05,30,6.80
2008,03,23,05,31,6.70
2008,03,23,05,32,6.70
2008,03,23,05,33,6.70
2008,03,23,05,34,6.70
2008,03,23,05,35,6.70
2008,03,23,05,36,6.70
2008,03,23,05,37,6.70
2008,03,23,05,38,6.60
2008,03,23,05,39,6.60
2008,03,23,05,40,6.60
2008,03,23,05,41,6.60
2008,03,23,05,42,6.60
2008,03,23,05,43,6.60
2008,03,23,05,44,6.60
2008,03,23,05,45,6.60
2008,03,23,05,46,6.60
2008,03,23,05,47,6.60
2008,03,23,05,48,6.60
2008,03,23,05,49,6.60
2008,03,23,05,50,6.60
2008,03,23,05,51,6.60
2008,03,23,05,52,6.60
2008,03,23,05,53,6.60
2008,03,23,05,54,6.60
2008,03,23,05,55,6.60
2008,03,23,05,56,6.60
2008,03,23,05,57,6.60
2008,03,23,05,58,6.60
2008,03,23,05,59,6.40
2008,03,23,06,00,6.40
2008,03,23,06,01,6.40
2008,03,23,06,02,6.40
2008,03,23,06,03,6.30
2008,03,23,06,04,6.20
2008,03,23,06,05,6.20
2008,03,23,06,06,6.20
2008,03,23,06,07,6.20
2008,03,23,06,08,6.20
2008,03,23,06,09,6.20
2008,03,23,06,10,6.20
2008,03,23,06,11,6.20
2008,03,23,06,12,6.20
2008,03,23,06,13,6.10
2008,03,23,06,14,6.10
2008,03,23,06,15,6.10
2008,03,23,06,16,6.20
2008,03,23,06,17,6.20
2008,03,23,06,18,6.20
2008,03,23,06,19,6.20
2008,03,23,06,20,6.20
2008,03,23,06,21,6.20
2008,03,23,06,22,6.20
2008,03,23,06,23,6.20
2008,03,23,06,24,6.20
2008,03,23,06,25,6.20
2008,03,23,06,26,6.20
2008,03,23,06,27,6.20
2008,03,23,06,28,6.20
2008,03,23,06,29,6.20
2008,03,23,06,30,6.20
2008,03,23,06,31,6.20
2008,03,23,06,32,6.20
2008,03,23,06,33,6.10
2008,03,23,06,34,6.10
2008,03,23,06,35,6.10
2008,03,23,06,36,6.10
2008,03,23,06,37,6.10
2008,03,23,06,38,6.00
2008,03,23,06,39,6.00
2008,03,23,06,40,5.90
2008,03,23,06,41,5.90
2008,03,23,06,42,5.90
2008,03,23,06,43,5.80
2008,03,23,06,44,5.80
2008,03,23,06,45,5.80
2008,03,23,06,46,5.80
2008,03,23,06,47,5.80
2008,03,23,06,48,5.70
2008,03,23,06,49,5.70
2008,03,23,06,50,5.70
2008,03,23,06,51,5.60
2008,03,23,06,52,5.60
2008,03,23,06,53,5.60
2008,03,23,06,54,5.50
2008,03,23,06,55,5.50
2008,03,23,06,56,5.50
2008,03,23,06,57,5.50
2008,03,23,06,58,5.50
2008,03,23,06,59,5.50
2008,03,23,07,00,5.40
2008,03,23,07,01,5.40
2008,03,23,07,02,5.40
2008,03,23,07,03,5.40
2008,03,23,07,04,5.40
2008,03,23,07,05,5.40
2008,03,23,07,06,5.30
2008,03,23,07,07,5.30
2008,03,23,07,08,5.30
2008,03,23,07,09,5.30
2008,03,23,07,10,5.30
2008,03,23,07,11,5.30
2008,03,23,07,12,5.30
2008,03,23,07,13,5.30
2008,03,23,07,14,5.30
2008,03,23,07,15,5.30
2008,03,23,07,16,5.30
2008,03,23,07,17,5.20
2008,03,23,07,18,5.20
2008,03,23,07,19,5.20
2008,03,23,07,20,5.20
2008,03,23,07,21,5.20
2008,03,23,07,22,5.10
2008,03,23,07,23,5.10
2008,03,23,07,24,5.10
2008,03,23,07,25,5.10
2008,03,23,07,26,5.10
2008,03,23,07,27,5.10
2008,03,23,07,28,5.10
2008,03,23,07,29,5.10
2008,03,23,07,30,5.10
2008,03,23,07,31,5.10
2008,03,23,07,32,5.10
2008,03,23,07,33,5.10
2008,03,23,07,34,5.10
2008,03,23,07,35,5.10
2008,03,23,07,36,5.10
2008,03,23,07,37,5.10
2008,03,23,07,38,5.10
2008,03,23,07,39,5.10
2008,03,23,07,40,5.10
2008,03,23,07,41,5.10
2008,03,23,07,42,5.10
2008,03,23,07,43,5.10
2008,03,23,07,44,5.10
2008,03,23,07,45,5.10
2008,03,23,07,46,5.10
2008,03,23,07,47,5.10
2008,03,23,07,48,5.10
2008,03,23,07,49,5.10
2008,03,23,07,50,5.10
2008,03,23,07,51,5.10
2008,03,23,07,52,5.10
2008,03,23,07,53,5.10
2008,03,23,07,54,5.10
2008,03,23,07,55,5.10
2008,03,23,07,56,5.10
2008,03,23,07,57,5.10
2008,03,23,07,58,5.10
2008,03,23,07,59,5.10
2008,03,23,08,00,5.10
2008,03,23,08,01,5.10
2008,03,23,08,02,5.10
2008,03,23,08,03,5.10
2008,03,23,08,04,5.10
2008,03,23,08,05,5.10
2008,03,23,08,06,5.10
2008,03,23,08,07,5.10
2008,03,23,08,08,5.10
2008,03,23,08,09,5.10
2008,03,23,08,10,5.10
2008,03,23,08,11,5.10
2008,03,23,08,12,5.10
2008,03,23,08,13,5.10
2008,03,23,08,14,5.10
2008,03,23,08,15,5.10
2008,03,23,08,16,5.10
2008,03,23,08,17,5.10
2008,03,23,08,18,5.10
2008,03,23,08,19,5.10
2008,03,23,08,20,5.10
2008,03,23,08,21,5.10
2008,03,23,08,22,5.10
2008,03,23,08,23,5.10
2008,03,23,08,24,5.10
2008,03,23,08,25,5.10
2008,03,23,08,26,5.10
2008,03,23,08,27,5.10
2008,03,23,08,28,5.10
2008,03,23,08,29,5.10
2008,03,23,08,30,5.10
2008,03,23,08,31,5.10
2008,03,23,08,32,5.10
2008,03,23,08,33,5.10
2008,03,23,08,34,5.10
2008,03,23,08,35,5.10
2008,03,23,08,36,5.00
2008,03,23,08,37,4.90
2008,03,23,08,38,4.90
2008,03,23,08,39,4.90
2008,03,23,08,40,4.90
2008,03,23,08,41,4.90
2008,03,23,08,42,4.90
2008,03,23,08,43,4.90
2008,03,23,08,44,4.90
2008,03,23,08,45,4.90
2008,03,23,08,46,4.90
2008,03,23,08,47,4.90
2008,03,23,08,48,4.90
2008,03,23,08,49,4.90
2008,03,23,08,50,4.90
2008,03,23,08,51,4.90
2008,03,23,08,52,4.90
2008,03,23,08,53,4.90
2008,03,23,08,54,4.90
2008,03,23,08,55,4.90
2008,03,23,08,56,4.90
2008,03,23,08,57,4.90
2008,03,23,08,58,4.90
2008,03,23,08,59,4.80
2008,03,23,09,00,4.80
2008,03,23,09,01,4.80
2008,03,23,09,02,4.90
2008,03,23,09,03,4.90
2008,03,23,09,04,4.90
2008,03,23,09,05,4.90
2008,03,23,09,06,4.90
2008,03,23,09,07,4.90
2008,03,23,09,08,4.90
2008,03,23,09,09,4.90
2008,03,23,09,10,4.90
2008,03,23,09,11,4.90
2008,03,23,09,12,4.90
2008,03,23,09,13,4.90
2008,03,23,09,14,4.90
2008,03,23,09,15,4.90
2008,03,23,09,16,4.90
2008,03,23,09,17,4.90
2008,03,23,09,18,4.90
2008,03,23,09,19,4.90
2008,03,23,09,20,4.90
2008,03,23,09,21,4.90
2008,03,23,09,22,4.90
2008,03,23,09,23,4.90
2008,03,23,09,24,4.90
2008,03,23,09,25,4.90
2008,03,23,09,26,4.90
2008,03,23,09,27,4.90
2008,03,23,09,28,4.90
2008,03,23,09,29,4.90
2008,03,23,09,30,4.90
2008,03,23,09,31,4.90
2008,03,23,09,32,4.90
2008,03,23,09,33,4.90
2008,03,23,09,34,4.90
2008,03,23,09,35,4.90
2008,03,23,09,36,4.90
2008,03,23,09,37,4.90
2008,03,23,09,38,4.90
2008,03,23,09,39,4.90
2008,03,23,09,40,5.00
2008,03,23,09,41,5.10
2008,03,23,09,42,5.10
2008,03,23,09,43,5.10
2008,03,23,09,44,5.10
2008,03,23,09,45,5.10
2008,03,23,09,46,5.10
2008,03,23,09,47,5.10
2008,03,23,09,48,5.10
2008,03,23,09,49,5.10
2008,03,23,09,50,5.10
2008,03,23,09,51,5.10
2008,03,23,09,52,5.10
2008,03,23,09,53,5.10
2008,03,23,09,54,5.10
2008,03,23,09,55,5.10
2008,03,23,09,56,5.10
2008,03,23,09,57,5.10
2008,03,23,09,58,5.10
2008,03,23,09,59,5.10
2008,03,23,10,00,5.10
2008,03,23,10,01,5.10
2008,03,23,10,02,5.10
2008,03,23,10,03,5.10
2008,03,23,10,04,5.10
2008,03,23,10,05,5.20
2008,03,23,10,06,5.20
2008,03,23,10,07,5.30
2008,03,23,10,08,5.30
2008,03,23,10,09,5.30
2008,03,23,10,10,5.30
2008,03,23,10,11,5.30
2008,03,23,10,12,5.30
2008,03,23,10,13,5.40
2008,03,23,10,14,5.40
2008,03,23,10,15,5.40
2008,03,23,10,16,5.50
2008,03,23,10,17,5.50
2008,03,23,10,18,5.50
2008,03,23,10,19,5.60
2008,03,23,10,20,5.60
2008,03,23,10,21,5.60
2008,03,23,10,22,5.60
2008,03,23,10,23,5.60
2008,03,23,10,24,5.70
2008,03,23,10,25,5.70
2008,03,23,10,26,5.70
2008,03,23,10,27,5.70
2008,03,23,10,28,5.70
2008,03,23,10,29,5.70
2008,03,23,10,30,5.70
2008,03,23,10,31,5.70
2008,03,23,10,32,5.70
2008,03,23,10,33,5.70
2008,03,23,10,34,5.70
2008,03,23,10,35,5.70
2008,03,23,10,36,5.70
2008,03,23,10,37,5.70
2008,03,23,10,38,5.70
2008,03,23,10,39,5.70
2008,03,23,10,40,5.70
2008,03,23,10,41,5.70
2008,03,23,10,42,5.70
2008,03,23,10,43,5.70
2008,03,23,10,44,5.70
2008,03,23,10,45,5.80
2008,03,23,10,46,5.80
2008,03,23,10,47,5.80
2008,03,23,10,48,5.70
2008,03,23,10,49,5.70
2008,03,23,10,50,5.70
2008,03,23,10,51,5.70
2008,03,23,10,52,5.70
2008,03,23,10,53,5.70
2008,03,23,10,54,5.70
2008,03,23,10,55,5.80
2008,03,23,10,56,5.90
2008,03,23,10,57,5.90
2008,03,23,10,58,6.00
2008,03,23,10,59,6.00
2008,03,23,11,00,6.10
2008,03,23,11,01,6.20
2008,03,23,11,02,6.20
2008,03,23,11,03,6.20
2008,03,23,11,04,6.20
2008,03,23,11,05,6.20
2008,03,23,11,06,6.20
2008,03,23,11,07,6.20
2008,03,23,11,08,6.20
2008,03,23,11,09,6.20
2008,03,23,11,10,6.20
2008,03,23,11,11,6.20
2008,03,23,11,12,6.20
2008,03,23,11,13,6.20
2008,03,23,11,14,6.20
2008,03,23,11,15,6.20
2008,03,23,11,16,6.30
2008,03,23,11,17,6.20
2008,03,23,11,18,6.20
2008,03,23,11,19,6.30
2008,03,23,11,20,6.30
2008,03,23,11,21,6.30
2008,03,23,11,22,6.30
2008,03,23,11,23,6.30
2008,03,23,11,24,6.30
2008,03,23,11,25,6.20
2008,03,23,11,26,6.20
2008,03,23,11,27,6.20
2008,03,23,11,28,6.20
2008,03,23,11,29,6.20
2008,03,23,11,30,6.20
2008,03,23,11,31,6.20
2008,03,23,11,32,6.20
2008,03,23,11,33,6.10
2008,03,23,11,34,6.10
2008,03,23,11,35,6.10
2008,03,23,11,36,6.10
2008,03,23,11,37,6.10
2008,03,23,11,38,6.10
2008,03,23,11,39,6.10
2008,03,23,11,40,6.10
2008,03,23,11,41,6.10
2008,03,23,11,42,6.20
2008,03,23,11,43,6.20
2008,03,23,11,44,6.20
2008,03,23,11,45,6.20
2008,03,23,11,46,6.20
2008,03,23,11,47,6.20
2008,03,23,11,48,6.20
2008,03,23,11,49,6.20
2008,03,23,11,50,6.20
2008,03,23,11,51,6.20
2008,03,23,11,52,6.20
2008,03,23,11,53,6.20
2008,03,23,11,54,6.20
2008,03,23,11,55,6.20
2008,03,23,11,56,6.20
2008,03,23,11,57,6.30
2008,03,23,11,58,6.40
2008,03,23,11,59,6.40
2008,03,23,12,00,6.60
2008,03,23,12,01,6.70
2008,03,23,12,02,6.70
2008,03,23,12,03,6.60
2008,03,23,12,04,6.60
2008,03,23,12,05,6.60
2008,03,23,12,06,6.60
2008,03,23,12,07,6.40
2008,03,23,12,08,6.50
2008,03,23,12,09,6.60
2008,03,23,12,10,6.70
2008,03,23,12,11,6.70
2008,03,23,12,12,6.70
2008,03,23,12,13,6.60
2008,03,23,12,14,6.60
2008,03,23,12,15,6.60
2008,03,23,12,16,6.60
2008,03,23,12,17,6.60
2008,03,23,12,18,6.60
2008,03,23,12,19,6.70
2008,03,23,12,20,6.60
2008,03,23,12,21,6.70
2008,03,23,12,22,6.60
2008,03,23,12,23,6.60
2008,03,23,12,24,6.60
2008,03,23,12,25,6.60
2008,03,23,12,26,6.60
2008,03,23,12,27,6.60
2008,03,23,12,28,6.40
2008,03,23,12,29,6.40
2008,03,23,12,30,6.40
2008,03,23,12,31,6.40
2008,03,23,12,32,6.40
2008,03,23,12,33,6.40
2008,03,23,12,34,6.40
2008,03,23,12,35,6.40
2008,03,23,12,36,6.40
2008,03,23,12,37,6.40
2008,03,23,12,38,6.30
2008,03,23,12,39,6.30
2008,03,23,12,40,6.30
2008,03,23,12,41,6.40
2008,03,23,12,42,6.40
2008,03,23,12,43,6.40
2008,03,23,12,44,6.40
2008,03,23,12,45,6.40
2008,03,23,12,46,6.40
2008,03,23,12,47,6.40
2008,03,23,12,48,6.40
2008,03,23,12,49,6.40
2008,03,23,12,50,6.40
2008,03,23,12,51,6.40
2008,03,23,12,52,6.40
2008,03,23,12,53,6.50
2008,03,23,12,54,6.60
2008,03,23,12,55,6.60
2008,03,23,12,56,6.50
2008,03,23,12,57,6.40
2008,03,23,12,58,6.50
2008,03,23,12,59,6.60
2008,03,23,13,00,6.50
2008,03,23,13,01,6.40
2008,03,23,13,02,6.40
2008,03,23,13,03,6.40
2008,03,23,13,04,6.40
2008,03,23,13,05,6.60
2008,03,23,13,06,6.60
2008,03,23,13,07,6.60
2008,03,23,13,08,6.50
2008,03,23,13,09,6.40
2008,03,23,13,10,6.40
2008,03,23,13,11,6.40
2008,03,23,13,12,6.40
2008,03,23,13,13,6.40
2008,03,23,13,14,6.40
2008,03,23,13,15,6.40
2008,03,23,13,16,6.40
2008,03,23,13,17,6.40
2008,03,23,13,18,6.50
2008,03,23,13,19,6.60
2008,03,23,13,20,6.60
2008,03,23,13,21,6.60
2008,03,23,13,22,6.60
2008,03,23,13,23,6.70
2008,03,23,13,24,6.80
2008,03,23,13,25,6.80
2008,03,23,13,26,6.80
2008,03,23,13,27,6.80
2008,03,23,13,28,6.90
2008,03,23,13,29,7.10
2008,03,23,13,30,7.20
2008,03,23,13,31,7.30
2008,03,23,13,32,7.30
2008,03,23,13,33,7.20
2008,03,23,13,34,7.00
2008,03,23,13,35,7.00
2008,03,23,13,36,6.90
2008,03,23,13,37,6.80
2008,03,23,13,38,6.90
2008,03,23,13,39,6.90
2008,03,23,13,40,7.00
2008,03,23,13,41,6.90
2008,03,23,13,42,6.90
2008,03,23,13,43,6.80
2008,03,23,13,44,6.80
2008,03,23,13,45,6.80
2008,03,23,13,46,6.80
2008,03,23,13,47,6.80
2008,03,23,13,48,6.70
2008,03,23,13,49,6.60
2008,03,23,13,50,6.60
2008,03,23,13,51,6.70
2008,03,23,13,52,6.70
2008,03,23,13,53,6.80
2008,03,23,13,54,6.80
2008,03,23,13,55,6.80
2008,03,23,13,56,6.80
2008,03,23,13,57,6.80
2008,03,23,13,58,6.70
2008,03,23,13,59,6.70
2008,03,23,14,00,6.60
2008,03,23,14,01,6.60
2008,03,23,14,02,6.60
2008,03,23,14,03,6.60
2008,03,23,14,04,6.60
2008,03,23,14,05,6.60
2008,03,23,14,06,6.70
2008,03,23,14,07,6.70
2008,03,23,14,08,6.70
2008,03,23,14,09,6.70
2008,03,23,14,10,6.60
2008,03,23,14,11,6.60
2008,03,23,14,12,6.60
2008,03,23,14,13,6.70
2008,03,23,14,14,6.70
2008,03,23,14,15,6.70
2008,03,23,14,16,6.80
2008,03,23,14,17,6.80
2008,03,23,14,18,6.80
2008,03,23,14,19,6.70
2008,03,23,14,20,6.60
2008,03,23,14,21,6.60
2008,03,23,14,22,6.60
2008,03,23,14,23,6.70
2008,03,23,14,24,6.70
2008,03,23,14,25,6.70
2008,03,23,14,26,6.70
2008,03,23,14,27,6.70
2008,03,23,14,28,6.80
2008,03,23,14,29,6.80
2008,03,23,14,30,6.80
2008,03,23,14,31,6.80
2008,03,23,14,32,6.90
2008,03,23,14,33,6.90
2008,03,23,14,34,6.80
2008,03,23,14,35,6.90
2008,03,23,14,36,6.80
2008,03,23,14,37,6.80
2008,03,23,14,38,6.80
2008,03,23,14,39,6.80
2008,03,23,14,40,6.80
2008,03,23,14,41,6.80
2008,03,23,14,42,6.80
2008,03,23,14,43,6.80
2008,03,23,14,44,6.80
2008,03,23,14,45,6.80
2008,03,23,14,46,6.80
2008,03,23,14,47,6.80
2008,03,23,14,48,6.80
2008,03,23,14,49,6.80
2008,03,23,14,50,6.90
2008,03,23,14,51,6.90
2008,03,23,14,52,6.90
2008,03,23,14,53,6.80
2008,03,23,14,54,6.80
2008,03,23,14,55,6.90
2008,03,23,14,56,6.90
2008,03,23,14,57,6.90
2008,03,23,14,58,6.90
2008,03,23,14,59,6.80
2008,03,23,15,00,6.80
2008,03,23,15,01,6.80
2008,03,23,15,02,6.80
2008,03,23,15,03,6.90
2008,03,23,15,04,6.80
2008,03,23,15,05,6.90
2008,03,23,15,06,6.90
2008,03,23,15,07,6.90
2008,03,23,15,08,6.80
2008,03,23,15,09,6.80
2008,03,23,15,10,6.80
2008,03,23,15,11,6.80
2008,03,23,15,12,6.90
2008,03,23,15,13,6.90
2008,03,23,15,14,6.90
2008,03,23,15,15,6.80
2008,03,23,15,16,6.80
2008,03,23,15,17,6.80
2008,03,23,15,18,6.70
2008,03,23,15,19,6.70
2008,03,23,15,20,6.80
2008,03,23,15,21,6.80
2008,03,23,15,22,6.80
2008,03,23,15,23,6.80
2008,03,23,15,24,6.80
2008,03,23,15,25,6.80
2008,03,23,15,26,6.80
2008,03,23,15,27,6.80
2008,03,23,15,28,6.80
2008,03,23,15,29,6.80
2008,03,23,15,30,6.80
2008,03,23,15,31,6.80
2008,03,23,15,32,6.80
2008,03,23,15,33,6.80
2008,03,23,15,34,6.80
2008,03,23,15,35,6.80
2008,03,23,15,36,6.70
2008,03,23,15,37,6.70
2008,03,23,15,38,6.70
2008,03,23,15,39,6.70
2008,03,23,15,40,6.60
2008,03,23,15,41,6.60
2008,03,23,15,42,6.60
2008,03,23,15,43,6.60
2008,03,23,15,44,6.50
2008,03,23,15,45,6.40
2008,03,23,15,46,6.40
2008,03,23,15,47,6.40
2008,03,23,15,48,6.40
2008,03,23,15,49,6.40
2008,03,23,15,50,6.40
2008,03,23,15,51,6.30
2008,03,23,15,52,6.30
2008,03,23,15,53,6.20
2008,03,23,15,54,6.20
2008,03,23,15,55,6.10
2008,03,23,15,56,6.10
2008,03,23,15,57,6.00
2008,03,23,15,58,6.00
2008,03,23,15,59,6.00
2008,03,23,16,00,6.00
2008,03,23,16,01,6.00
2008,03,23,16,02,6.00
2008,03,23,16,03,5.90
2008,03,23,16,04,5.90
2008,03,23,16,05,5.90
2008,03,23,16,06,5.80
2008,03,23,16,07,5.80
2008,03,23,16,08,5.90
2008,03,23,16,09,5.90
2008,03,23,16,10,5.90
2008,03,23,16,11,5.90
2008,03,23,16,12,5.90
2008,03,23,16,13,5.90
2008,03,23,16,14,5.90
2008,03,23,16,15,5.90
2008,03,23,16,16,5.90
2008,03,23,16,17,6.00
2008,03,23,16,18,6.10
2008,03,23,16,19,6.10
2008,03,23,16,20,6.00
2008,03,23,16,21,6.10
2008,03,23,16,22,6.10
2008,03,23,16,23,6.10
2008,03,23,16,24,6.10
2008,03,23,16,25,6.10
2008,03,23,16,26,6.10
2008,03,23,16,27,6.00
2008,03,23,16,28,6.00
2008,03,23,16,29,6.00
2008,03,23,16,30,6.00
2008,03,23,16,31,6.10
2008,03,23,16,32,6.20
2008,03,23,16,33,6.30
2008,03,23,16,34,6.30
2008,03,23,16,35,6.40
2008,03,23,16,36,6.60
2008,03,23,16,37,6.60
2008,03,23,16,38,6.70
2008,03,23,16,39,6.80
2008,03,23,16,40,6.80
2008,03,23,16,41,6.70
2008,03,23,16,42,6.70
2008,03,23,16,43,6.70
2008,03,23,16,44,6.70
2008,03,23,16,45,6.60
2008,03,23,16,46,6.60
2008,03,23,16,47,6.60
2008,03,23,16,48,6.50
2008,03,23,16,49,6.30
2008,03,23,16,50,6.20
2008,03,23,16,51,6.20
2008,03,23,16,52,6.10
2008,03,23,16,53,6.10
2008,03,23,16,54,6.10
2008,03,23,16,55,6.20
2008,03,23,16,56,6.20
2008,03,23,16,57,6.20
2008,03,23,16,58,6.20
2008,03,23,16,59,6.30
2008,03,23,17,00,6.30
2008,03,23,17,01,6.40
2008,03,23,17,02,6.40
2008,03,23,17,03,6.30
2008,03,23,17,04,6.20
2008,03,23,17,05,5.80
2008,03,23,17,06,5.40
2008,03,23,17,07,5.00
2008,03,23,17,08,4.70
2008,03,23,17,09,4.50
2008,03,23,17,10,4.20
2008,03,23,17,11,4.10
2008,03,23,17,12,4.00
2008,03,23,17,13,3.90
2008,03,23,17,14,3.80
2008,03,23,17,15,3.80
2008,03,23,17,16,3.90
2008,03,23,17,17,4.00
2008,03,23,17,18,4.10
2008,03,23,17,19,4.20
2008,03,23,17,20,4.20
2008,03,23,17,21,4.20
2008,03,23,17,22,4.30
2008,03,23,17,23,4.40
2008,03,23,17,24,4.40
2008,03,23,17,25,4.50
2008,03,23,17,26,4.50
2008,03,23,17,27,4.60
2008,03,23,17,28,4.60
2008,03,23,17,29,4.70
2008,03,23,17,30,4.70
2008,03,23,17,31,4.80
2008,03,23,17,32,4.80
2008,03,23,17,33,4.80
2008,03,23,17,34,4.80
2008,03,23,17,35,4.90
2008,03,23,17,36,4.90
2008,03,23,17,37,4.90
2008,03,23,17,38,4.90
2008,03,23,17,39,4.90
2008,03,23,17,40,4.90
2008,03,23,17,41,4.90
2008,03,23,17,42,4.80
2008,03,23,17,43,4.70
2008,03,23,17,44,4.70
2008,03,23,17,45,4.70
2008,03,23,17,46,4.70
2008,03,23,17,47,4.70
2008,03,23,17,48,4.60
2008,03,23,17,49,4.50
2008,03,23,17,50,4.50
2008,03,23,17,51,4.50
2008,03,23,17,52,4.50
2008,03,23,17,53,4.60
2008,03,23,17,54,4.60
2008,03,23,17,55,4.70
2008,03,23,17,56,4.70
2008,03,23,17,57,4.80
2008,03,23,17,58,4.90
2008,03,23,17,59,4.90
2008,03,23,18,00,4.90
2008,03,23,18,01,4.90
2008,03,23,18,02,4.90
2008,03,23,18,03,5.10
2008,03,23,18,04,5.10
2008,03,23,18,05,5.10
2008,03,23,18,06,5.10